Home   Weather   Jefferson City   Past weeks

Flag for USA Past Weather in Jefferson City, Missouri, USA — Yesterday and Last 2 Weeks

Now
27 °F

Clear.


Feels Like: 27 °F
Forecast: 30 / 46 °F
Wind: No wind

Location: Jefferson City Memorial Airport

Current Time: Dec 3, 2016 at 7:52:08 am

Latest Report: Dec 3, 2016 at 6:53 am


Visibility: 10 mi

Pressure: 30.32 "Hg

Humidity: 92%

Dew Point: 25 °F

Location of Jefferson CityLocation

Past Weather in Jefferson City — Graph

°F

Jefferson City Temperature Yesterday

Maximum temperature yesterday: 50 °F (at 1:53 pm)
Minimum temperature yesterday: 24 °F (at 2:53 am)
Average temperature yesterday: 35 °F

High & Low Weather Summary for the Past Weeks

 TemperatureHumidityPressure
High70 °F (Nov 18, 7:53 am)100% (Nov 26, 12:53 am)30.48 "Hg (Nov 26, 12:53 am)
Low24 °F (Nov 20, 3:53 am)28% (Nov 20, 2:53 pm)29.16 "Hg (Nov 28, 3:53 pm)
Average42 °F69%30.04 "Hg
* Reported Nov 18 6:53 am — Dec 3 6:53 am, Jefferson City, Weather by CustomWeather, © 2016

Note: Actual official high and low records may vary slightly from our data, if they occured in-between our weather recording intervals... More about our weather records

Advertising

Jefferson City Weather History for the Previous 24 Hours

Scroll right to see more
 ConditionsComfort  
Time TempWeatherWind HumidityBarometerVisibility
6:53 am
Sat, Dec 3
27 °FClear.No wind92%30.32 "Hg10 mi
5:53 am28 °FClear.No wind89%30.32 "Hg10 mi
4:53 am27 °FClear.No wind89%30.33 "Hg10 mi
3:53 am28 °FClear.No wind89%30.32 "Hg10 mi
2:53 am27 °FClear.No wind89%30.35 "Hg10 mi
8:53 pm
Fri, Dec 2
32 °FClear.No wind75%30.32 "Hg10 mi
7:53 pm33 °FClear.No wind75%30.32 "Hg10 mi
6:53 pm35 °FClear.3 mph70%30.31 "Hg10 mi
5:53 pm40 °FClear.3 mph60%30.29 "Hg10 mi
4:53 pm47 °FClear.3 mph44%30.28 "Hg10 mi
3:53 pm48 °FSunny.3 mph41%30.27 "Hg10 mi
2:53 pm50 °FSunny.8 mph39%30.26 "Hg10 mi
1:53 pm50 °FSunny.7 mph39%30.25 "Hg10 mi
12:53 pm48 °FSunny.5 mph46%30.26 "Hg10 mi
11:53 am46 °FSunny.5 mph50%30.26 "Hg10 mi
10:53 am42 °FSunny.7 mph62%30.27 "Hg10 mi
9:53 am37 °FScattered clouds.3 mph76%30.27 "Hg10 mi
8:53 am31 °FScattered clouds.No wind89%30.27 "Hg10 mi
7:53 am28 °FOvercast.No wind89%30.24 "Hg10 mi
Weather by CustomWeather, © 2016

See weather overviewHow to use our weather pages